CDT,Max TemperatureF,Mean TemperatureF,Min TemperatureF,Max Dew PointF,MeanDew PointF,Min DewpointF,Max Humidity, Mean Humidity, Min Humidity, Max Sea Level PressureIn, Mean Sea Level PressureIn, Min Sea Level PressureIn, Max VisibilityMiles, Mean VisibilityMiles, Min VisibilityMiles, Max Wind SpeedMPH, Mean Wind SpeedMPH, Max Gust SpeedMPH,PrecipitationIn, CloudCover, Events, WindDirDegrees
2012-10-1,68,55,42,49,42,38,89,62,34,29.96,29.91,29.85,10,10,8,9,1,10,0.00,8,,45
2012-10-2,75,60,44,50,43,36,92,58,23,29.94,29.90,29.85,10,10,8,15,6,18,0.00,2,,46
2012-10-3,68,60,51,54,52,50,100,79,58,30.04,29.98,29.92,10,9,4,7,3,14,T,6,Rain,39
2012-10-4,73,59,45,53,47,33,93,70,46,30.15,30.06,29.97,10,10,8,22,9,28,T,4,Rain,232
2012-10-5,54,46,37,32,27,20,76,54,31,30.19,30.15,30.10,10,10,10,20,11,25,0.00,5,,283
2012-10-6,47,40,32,27,25,22,75,59,42,30.23,30.18,30.11,10,10,10,18,9,22,0.00,5,,302
2012-10-7,52,42,32,28,22,17,64,45,26,30.23,30.19,30.14,10,10,10,18,6,21,0.00,5,,285
2012-10-8,62,46,30,32,26,21,75,50,25,30.15,30.07,29.97,10,10,10,29,13,41,0.00,2,,194
2012-10-9,65,53,40,41,38,33,96,68,39,29.97,29.91,29.82,10,10,8,26,14,35,0.16,7,Rain,232
2012-10-10,52,43,33,38,29,26,92,65,38,30.20,30.12,29.95,10,10,10,24,10,30,0.00,1,,274
2012-10-11,68,51,33,38,33,28,82,56,29,30.30,30.14,30.05,10,10,10,23,13,30,0.01,3,Rain,248
2012-10-12,56,45,33,32,27,24,69,51,32,30.49,30.38,30.27,10,10,10,20,9,25,0.00,2,,86
2012-10-13,64,54,43,63,52,33,100,80,60,30.25,29.96,29.78,10,6,2,20,12,24,0.35,8,Rain,183
2012-10-14,67,57,47,63,56,43,100,87,73,29.82,29.61,29.44,10,8,1,30,13,36,0.53,8,Rain,237
2012-10-15,61,51,40,43,39,36,89,66,42,29.98,29.93,29.83,10,10,10,16,7,25,0.00,2,,309
2012-10-16,71,56,40,53,46,38,89,67,44,29.96,29.73,29.52,10,10,10,31,14,39,0.00,4,,162
2012-10-17,70,61,51,58,53,47,100,79,58,29.53,29.42,29.32,10,8,2,30,13,41,0.81,7,Rain,199
2012-10-18,51,48,44,45,41,38,92,84,76,29.47,29.40,29.32,10,9,3,25,14,30,0.11,8,Rain,217
2012-10-19,52,46,40,45,42,38,92,86,80,29.70,29.52,29.42,10,9,5,13,6,17,0.02,7,Rain,250
2012-10-20,60,48,35,43,38,34,92,70,47,29.96,29.83,29.71,10,10,10,14,4,17,0.00,2,,244
2012-10-21,69,54,38,51,45,37,100,74,47,30.05,29.99,29.94,10,10,8,18,7,24,0.00,1,Fog,143
2012-10-22,66,60,53,63,58,49,100,92,83,29.98,29.93,29.89,10,6,1,14,5,16,0.19,7,Rain-Thunderstorm,139
2012-10-23,72,66,60,66,62,59,100,89,78,29.93,29.90,29.85,10,5,1,16,8,20,0.05,8,Rain,130
2012-10-24,79,70,61,66,63,60,93,80,67,29.93,29.87,29.80,10,10,10,22,12,29,0.00,7,,174
2012-10-25,73,57,41,63,54,34,93,83,73,30.12,29.79,29.64,10,10,6,29,18,37,0.19,7,Rain-Thunderstorm,235
2012-10-26,51,43,34,32,28,25,75,57,39,30.38,30.30,30.15,10,10,10,21,9,29,0.00,5,,332
2012-10-27,47,38,28,27,25,22,85,65,45,30.39,30.35,30.31,10,10,10,16,7,22,0.00,3,,1
2012-10-28,50,41,31,32,26,22,75,60,45,30.37,30.34,30.31,10,10,10,18,8,22,0.00,4,,17
2012-10-29,52,41,29,31,24,19,85,57,28,30.38,30.30,30.15,10,10,10,20,10,25,0.00,2,,359
2012-10-30,49,43,37,27,24,19,64,49,34,30.14,29.96,29.88,10,10,10,22,17,35,0.00,7,,349
2012-10-31,51,40,29,30,22,14,72,49,26,29.92,29.90,29.86,10,10,10,21,11,28,0.00,1,,328